Weather History for Walla Walla, WA

Change the Weather History Date:

Wednesday, November 30, 2011

  Actual Average Record
Temperature  
Mean Temperature 40 °F -  
Max Temperature 45 °F 42 °F 65 °F (1951)
Min Temperature 35 °F 31 °F 6 °F (1985)
Degree Days  
Heating Degree Days 25    
Moisture  
Dew Point 34 °F    
Average Humidity 77    
Maximum Humidity 89    
Minimum Humidity 61    
Precipitation  
Precipitation 0.01 in - - ()
Sea Level Pressure  
Sea Level Pressure 30.47 in    
Wind  
Wind Speed 9 mph (South)    
Max Wind Speed 13 mph    
Max Gust Speed -    
Visibility 10 miles    
Events Rain    
Averages and records for this station are not official NWS values.
T = Trace of Precipitation, MM = Missing Value Source: NWS Daily Summary

Daily Weather History Graph

Daily Weather History Graph

Search for Another Location

Airport:

Trip Planner

Search our weather history database for the weather conditions in past years. The results will help you decide how hot, cold, wet, or windy it might be!

Date:

Astronomy

Nov. 30, 2011 Rise Set
Actual Time 7:13 AM PST 4:09 PM PST
Civil Twilight 6:39 AM PST 4:43 PM PST
Nautical Twilight 6:02 AM PST 5:21 PM PST
Astronomical Twilight 5:26 AM PST 5:57 PM PST
Moon 11:23 AM PST (11/30) 10:23 PM PST (11/30)
Length of Visible Light 10h 03m
Length of Day
8h 56m
Waxing Crescent, 34% of the Moon is Illuminated
Nov 30
Waxing Crescent
Dec 2
First Quarter
Dec 10
Full
Dec 17
Last Quarter
Dec 24
New

Hourly Weather History & Observations

Time (PST) Temp. Windchill Dew Point Humidity Pressure Visibility Wind Dir Wind Speed Gust Speed Precip Events Conditions
12:53 AM 39.0 °F 31.4 °F 30.9 °F 73% 30.25 in 10.0 mi South 12.7 mph - N/A   Clear
1:53 AM 41.0 °F 34.7 °F 32.0 °F 70% 30.27 in 10.0 mi South 10.4 mph - N/A   Overcast
2:53 AM 41.0 °F 35.2 °F 34.0 °F 76% 30.28 in 10.0 mi South 9.2 mph - 0.00 in Rain Light Rain
3:45 AM 39.2 °F 32.5 °F 35.6 °F 87% 30.25 in 10.0 mi South 10.4 mph - 0.01 in Rain Light Rain
3:53 AM 39.9 °F 33.4 °F 36.0 °F 86% 30.28 in 10.0 mi South 10.4 mph - 0.01 in Rain Light Rain
4:53 AM 39.2 °F 31.6 °F 35.6 °F 87% 30.25 in 9.0 mi SSE 12.7 mph - N/A Rain Light Rain
5:53 AM 39.9 °F 34.5 °F 36.0 °F 86% 30.32 in 10.0 mi South 8.1 mph - 0.00 in   Overcast
6:01 AM 39.2 °F 33.0 °F 35.6 °F 87% 30.29 in 10.0 mi South 9.2 mph - N/A   Overcast
6:53 AM 39.9 °F 35.1 °F 36.0 °F 86% 30.33 in 10.0 mi SSE 6.9 mph - 0.00 in Rain Light Rain
7:53 AM 39.9 °F 33.9 °F 37.0 °F 89% 30.38 in 10.0 mi South 9.2 mph - 0.00 in   Overcast
8:53 AM 39.9 °F 35.1 °F 37.0 °F 89% 30.42 in 10.0 mi SSW 6.9 mph - N/A   Mostly Cloudy
9:53 AM 42.1 °F 37.1 °F 36.0 °F 79% 30.45 in 10.0 mi SW 8.1 mph - N/A   Mostly Cloudy
10:53 AM 43.0 °F 38.2 °F 35.1 °F 74% 30.47 in 10.0 mi SW 8.1 mph - N/A   Scattered Clouds
11:53 AM 44.1 °F 40.8 °F 36.0 °F 73% 30.48 in 10.0 mi SW 5.8 mph - N/A   Mostly Cloudy
12:11 PM 44.6 °F 40.7 °F 35.6 °F 71% 30.46 in 10.0 mi SSW 6.9 mph - N/A   Scattered Clouds
12:53 PM 45.0 °F 41.8 °F 35.1 °F 68% 30.49 in 10.0 mi Variable 5.8 mph - N/A   Mostly Cloudy
1:53 PM 44.1 °F 42.5 °F 33.1 °F 65% 30.51 in 10.0 mi West 3.5 mph - N/A   Mostly Cloudy
2:53 PM 45.0 °F - 33.1 °F 63% 30.56 in 10.0 mi Calm Calm - N/A   Overcast
3:53 PM 44.1 °F 40.8 °F 34.0 °F 68% 30.59 in 10.0 mi South 5.8 mph - N/A   Overcast
4:53 PM 43.0 °F 38.8 °F 35.1 °F 74% 30.61 in 10.0 mi SSE 6.9 mph - N/A   Overcast
5:53 PM 41.0 °F 39.0 °F 34.0 °F 76% 30.63 in 10.0 mi SE 3.5 mph - N/A   Mostly Cloudy
7:53 PM 37.9 °F 32.7 °F 32.0 °F 79% 30.68 in 10.0 mi ESE 6.9 mph - N/A   Clear
8:53 PM 37.0 °F 33.3 °F 30.0 °F 76% 30.69 in 10.0 mi SE 4.6 mph - N/A   Clear
9:53 PM 37.0 °F 32.4 °F 30.0 °F 76% 30.72 in 10.0 mi South 5.8 mph - N/A   Clear
10:53 PM 35.1 °F 27.9 °F 27.0 °F 72% 30.73 in 10.0 mi SSE 9.2 mph - N/A   Clear
11:53 PM 35.1 °F 29.3 °F 23.0 °F 61% 30.74 in 10.0 mi South 6.9 mph - N/A   Clear